TimeCDT,TemperatureF,Dew PointF,Humidity,Sea Level PressureIn,VisibilityMPH,Wind Direction,Wind SpeedMPH,Gust SpeedMPH,PrecipitationIn,Events,Conditions,WindDirDegrees,DateUTC
12:15 AM,35.8,35.8,100,30.02,4.0,Calm,Calm,-,N/A,,Clear,0,2013-06-03 05:15:00
12:35 AM,34.9,34.9,100,30.02,7.0,Calm,Calm,-,N/A,,Clear,0,2013-06-03 05:35:00
12:55 AM,34.2,34.2,100,30.02,0.5,Calm,Calm,-,N/A,Fog,Fog,0,2013-06-03 05:55:00
1:15 AM,34.9,34.9,100,30.02,0.5,Calm,Calm,-,N/A,Fog,Fog,0,2013-06-03 06:15:00
1:35 AM,34.3,34.3,100,30.02,0.5,Calm,Calm,-,N/A,Fog,Fog,0,2013-06-03 06:35:00
1:55 AM,34.2,34.2,100,30.02,1.2,Calm,Calm,-,N/A,,Overcast,0,2013-06-03 06:55:00
2:15 AM,33.8,33.8,100,30.02,1.0,Calm,Calm,-,N/A,,Mostly Cloudy,0,2013-06-03 07:15:00
2:35 AM,32.9,32.9,100,30.02,1.0,Calm,Calm,-,N/A,,Mist,0,2013-06-03 07:35:00
2:55 AM,32.0,32.0,100,30.02,0.8,Calm,Calm,-,N/A,,Mostly Cloudy,0,2013-06-03 07:55:00
3:15 AM,32.9,32.9,100,30.02,0.8,Calm,Calm,-,N/A,,Mostly Cloudy,0,2013-06-03 08:15:00
3:35 AM,32.5,32.5,100,30.02,1.2,Calm,Calm,-,N/A,,Mist,0,2013-06-03 08:35:00
3:55 AM,32.0,32.0,100,30.02,0.8,Calm,Calm,-,N/A,,Mist,0,2013-06-03 08:55:00
4:15 AM,32.2,32.2,100,30.02,0.2,Calm,Calm,-,N/A,Fog,Fog,0,2013-06-03 09:15:00
4:35 AM,32.0,32.0,100,30.03,0.2,Calm,Calm,-,N/A,Fog,Fog,0,2013-06-03 09:35:00
4:55 AM,31.8,31.8,100,30.03,0.2,Calm,Calm,-,N/A,Fog,Fog,0,2013-06-03 09:55:00
5:15 AM,32.0,32.0,100,30.03,0.2,Calm,Calm,-,N/A,Fog,Fog,0,2013-06-03 10:15:00
5:35 AM,31.8,31.8,100,30.04,7.0,Calm,Calm,-,N/A,,Overcast,0,2013-06-03 10:35:00
5:55 AM,32.0,32.0,100,30.04,0.5,Calm,Calm,-,N/A,Fog,Fog,0,2013-06-03 10:55:00
6:15 AM,32.9,32.9,100,30.04,7.0,Calm,Calm,-,N/A,,Scattered Clouds,0,2013-06-03 11:15:00
6:35 AM,37.6,37.6,100,30.04,10.0,Calm,Calm,-,N/A,,Clear,0,2013-06-03 11:35:00
6:55 AM,40.8,40.8,100,30.04,10.0,Calm,Calm,-,N/A,,Clear,0,2013-06-03 11:55:00
7:15 AM,43.5,43.5,100,30.04,10.0,Calm,Calm,-,N/A,,Clear,0,2013-06-03 12:15:00
7:35 AM,45.5,41.7,87,30.04,10.0,Calm,Calm,-,N/A,,Clear,0,2013-06-03 12:35:00
7:55 AM,48.0,40.1,74,30.05,10.0,Calm,Calm,-,N/A,,Clear,0,2013-06-03 12:55:00
8:15 AM,50.4,39.6,66,30.05,10.0,NW,3.5,-,N/A,,Clear,320,2013-06-03 13:15:00
8:35 AM,51.6,34.9,53,30.06,10.0,NW,4.6,-,N/A,,Clear,320,2013-06-03 13:35:00
8:55 AM,52.9,35.8,52,30.06,10.0,North,4.6,-,N/A,,Clear,10,2013-06-03 13:55:00
9:15 AM,54.5,35.8,49,30.06,10.0,NNW,5.8,-,N/A,,Clear,330,2013-06-03 14:15:00
9:35 AM,56.1,33.8,43,30.05,10.0,NNW,10.4,-,N/A,,Clear,330,2013-06-03 14:35:00
9:55 AM,56.8,30.6,37,30.05,10.0,NNW,9.2,-,N/A,,Clear,340,2013-06-03 14:55:00
10:15 AM,57.2,30.9,37,30.05,10.0,West,5.8,-,N/A,,Clear,280,2013-06-03 15:15:00
10:35 AM,58.3,31.8,37,30.05,10.0,NNW,10.4,-,N/A,,Clear,340,2013-06-03 15:35:00
10:55 AM,58.8,31.3,35,30.06,10.0,NNW,12.7,16.1,N/A,,Clear,340,2013-06-03 15:55:00
11:15 AM,59.4,30.9,34,30.06,10.0,NW,12.7,-,N/A,,Clear,320,2013-06-03 16:15:00
11:35 AM,59.9,30.0,32,30.06,10.0,NW,8.1,18.4,N/A,,Clear,310,2013-06-03 16:35:00
11:55 AM,60.3,30.9,33,30.06,10.0,NW,6.9,18.4,N/A,,Clear,310,2013-06-03 16:55:00
12:15 PM,60.6,31.3,33,30.05,10.0,NNW,5.8,-,N/A,,Clear,330,2013-06-03 17:15:00
12:35 PM,61.5,30.9,32,30.06,10.0,NW,16.1,-,N/A,,Clear,320,2013-06-03 17:35:00
12:55 PM,61.3,30.2,31,30.06,10.0,WNW,13.8,17.3,N/A,,Clear,300,2013-06-03 17:55:00
1:15 PM,62.8,30.9,30,30.05,10.0,WNW,9.2,19.6,N/A,,Clear,300,2013-06-03 18:15:00
1:35 PM,62.8,30.9,30,30.05,10.0,NNW,15.0,20.7,N/A,,Clear,340,2013-06-03 18:35:00
1:55 PM,62.8,30.2,29,30.05,10.0,WNW,10.4,17.3,N/A,,Clear,300,2013-06-03 18:55:00
2:15 PM,63.7,31.6,30,30.04,10.0,NNW,11.5,18.4,N/A,,Clear,330,2013-06-03 19:15:00
2:35 PM,64.0,30.7,29,30.04,10.0,NW,8.1,17.3,N/A,,Clear,320,2013-06-03 19:35:00
2:55 PM,62.8,29.3,28,30.04,10.0,NW,10.4,18.4,N/A,,Clear,320,2013-06-03 19:55:00
3:15 PM,64.0,31.3,29,30.05,10.0,North,10.4,17.3,N/A,,Clear,360,2013-06-03 20:15:00
3:35 PM,64.6,30.0,27,30.04,10.0,NNW,9.2,-,N/A,,Clear,340,2013-06-03 20:35:00
3:55 PM,63.1,30.0,29,30.04,10.0,North,12.7,17.3,N/A,,Clear,10,2013-06-03 20:55:00
4:15 PM,62.2,29.8,29,30.05,10.0,NNW,9.2,-,N/A,,Clear,340,2013-06-03 21:15:00
4:35 PM,62.8,29.1,28,30.04,10.0,NNW,8.1,-,N/A,,Clear,340,2013-06-03 21:35:00
4:55 PM,63.0,28.9,28,30.04,10.0,North,10.4,16.1,N/A,,Clear,10,2013-06-03 21:55:00
5:15 PM,62.8,28.2,27,30.04,10.0,North,10.4,-,N/A,,Clear,350,2013-06-03 22:15:00
5:35 PM,61.5,29.1,29,30.04,10.0,North,11.5,17.3,N/A,,Clear,10,2013-06-03 22:35:00
5:55 PM,60.6,29.1,30,30.05,10.0,NE,12.7,-,N/A,,Clear,40,2013-06-03 22:55:00
6:15 PM,58.6,28.2,31,30.05,10.0,NNE,10.4,-,N/A,,Clear,30,2013-06-03 23:15:00
6:35 PM,57.4,27.3,32,30.06,10.0,NNE,9.2,-,N/A,,Clear,30,2013-06-03 23:35:00
6:55 PM,57.2,27.9,33,30.06,10.0,NNE,10.4,-,N/A,,Clear,20,2013-06-03 23:55:00
7:15 PM,55.8,26.6,33,30.06,10.0,NE,9.2,-,N/A,,Clear,40,2013-06-04 00:15:00
7:35 PM,54.5,26.1,33,30.07,10.0,NNE,6.9,-,N/A,,Clear,30,2013-06-04 00:35:00
7:55 PM,53.6,27.1,36,30.07,10.0,NNE,3.5,-,N/A,,Clear,20,2013-06-04 00:55:00
8:15 PM,52.5,28.8,40,30.06,10.0,NE,5.8,-,N/A,,Clear,40,2013-06-04 01:15:00
8:35 PM,50.0,30.6,47,30.07,10.0,NNE,4.6,-,N/A,,Clear,30,2013-06-04 01:35:00
8:55 PM,49.6,32.4,51,30.10,10.0,North,3.5,-,N/A,,Clear,10,2013-06-04 01:55:00
9:15 PM,48.4,32.7,55,30.10,10.0,Calm,Calm,-,N/A,,Clear,0,2013-06-04 02:15:00
9:35 PM,47.7,34.0,59,30.11,10.0,Calm,Calm,-,N/A,,Clear,0,2013-06-04 02:35:00
9:55 PM,46.4,34.0,62,30.12,10.0,Calm,Calm,-,N/A,,Clear,0,2013-06-04 02:55:00
10:15 PM,44.4,36.0,72,30.13,10.0,Calm,Calm,-,N/A,,Clear,0,2013-06-04 03:15:00
10:35 PM,46.4,35.2,65,30.12,10.0,Calm,Calm,-,N/A,,Clear,0,2013-06-04 03:35:00
10:55 PM,46.6,36.5,68,30.13,10.0,Calm,Calm,-,N/A,,Clear,0,2013-06-04 03:55:00
11:15 PM,45.9,36.0,68,30.13,10.0,Calm,Calm,-,N/A,,Clear,0,2013-06-04 04:15:00
11:35 PM,45.1,36.5,72,30.13,10.0,Calm,Calm,-,N/A,,Clear,0,2013-06-04 04:35:00
11:55 PM,44.4,37.0,75,30.13,10.0,Calm,Calm,-,N/A,,Clear,0,2013-06-04 04:55:00